Location: Boissi�res
(45.2500°N, 2.3667°E)
Time: 20:38:24
(UTC+00:00)

SL-16 R/B - Pass Details

Date: 03 March 2021
Orbit: 843 x 845 km, 71.0° (Epoch: 17 April)

Event Time Altitude Azimuth Distance (km) Brightness Sun altitude
Rises 19:30:09 0° 236° (SW) 3,392 6.0 -20.0°
Reaches altitude 10° 19:32:52 10° 246° (WSW) 2,462 5.4 -20.5°
Maximum altitude 19:37:50 31° 308° (NW) 1,449 4.0 -21.3°
Drops below altitude 10° 19:42:50 10° 10° (N) 2,476 4.7 -22.2°
Sets 19:45:36 0° 20° (NNE) 3,415 5.3 -22.6°
